2018-094D (43713 NORAD) Tracking and Keplerian Element Data

This shows tracking and keplerian element data for the satellite.

Feedback or suggestion? Click here.




ElementValue
Catalog43713
Name2018-094D
Epoch Orbit312
Epoch Day344.54152166
Epoch Year2018
RAAN349.1558
Inclination97.4059
Eccentricity0.0013917
Argument of Perigee191.2287
Mean Anonmoly268.3432
Mean Motion15.23408108
Decay Rate4.32E-06
L11 43713U 18094D 18344.54152166 .00000432 00000-0 21100-4 0 9997
L22 43713 97.4059 349.1558 0013917 191.2287 268.3432 15.23408108 3126

Live tracking and technical data element details for 2018-094D (NORAD 43713). 2018-094D can be tracked NOW for your location showing map with azimuth and elevation plus other details from your city location.

Track the satellite on the map from your city or location and see movement details for azimuth, elevation, latitude, longitude, range, height, and movement on the map or in text.







IsCatalogInMostPopularTable: catalog: 43713, numindb: 9
Update: records affected: 1



GetName: 43713 2018-094D

Hit Count: updated at: Tue, 11 Dec 2018 02:01:15 GMT